Total_Precipitation_Accumulation
2.40 2.06 2.03 2.03 2.13 2.05 2.16 2.74 3.30 3.21 2.67 2.38 2.15 1.35 0.92 1.01 1.12 1.12 0.89 0.97 0.93 0.80 0.78 0.60 0.54 0.55 0.57 0.63 0.75 0.90 1.06 1.40 1.51 1.47 1.58 1.76 2.02 2.33
2.61 2.54 2.29 1.98 1.96 2.31 2.37 2.27 2.75 3.05 2.71 1.88 1.94 2.08 1.46 1.34 1.34 1.23 0.96 1.01 0.88 0.76 0.68 0.54 0.51 0.49 0.50 0.58 0.56 0.52 0.57 0.75 0.95 1.06 1.30 1.65 1.97 2.26
2.45 2.34 2.24 2.04 2.20 2.14 2.39 2.50 2.77 3.23 3.37 2.18 1.83 1.92 1.68 0.99 0.92 0.88 0.84 0.73 0.69 0.83 0.72 0.55 0.38 0.34 0.34 0.38 0.43 0.56 0.64 0.80 0.99 0.96 0.99 1.23 1.54 2.07
2.58 2.46 2.31 2.47 2.61 2.44 2.50 2.72 2.54 2.49 2.78 2.56 2.18 2.05 1.98 1.31 1.12 1.00 0.80 0.70 0.56 0.62 0.62 0.53 0.42 0.34 0.33 0.33 0.38 0.51 0.69 0.83 1.00 1.11 1.12 1.12 1.11 1.55
2.22 2.15 2.12 2.19 2.39 2.23 2.17 2.14 2.33 2.35 2.49 2.51 2.15 1.93 1.90 1.66 1.19 0.75 0.51 0.48 0.47 0.66 0.70 0.66 0.59 0.53 0.50 0.50 0.52 0.57 0.71 0.97 1.17 1.12 1.24 1.35 1.50 1.47
1.92 2.11 2.04 2.05 2.12 2.20 2.36 2.32 2.39 2.72 2.61 2.43 2.10 1.88 2.17 2.11 2.06 1.25 0.83 0.63 0.57 0.58 0.67 0.70 0.72 0.69 0.68 0.68 0.67 0.67 0.72 0.84 1.24 1.35 1.41 1.30 1.62 1.48
1.95 1.98 2.00 2.11 2.09 1.98 1.96 1.86 1.82 2.03 2.40 2.59 2.31 1.97 1.96 2.03 2.39 1.69 1.14 0.93 0.93 0.79 0.83 0.93 0.90 0.81 0.68 0.74 0.78 0.81 0.83 0.88 1.09 1.51 1.73 1.94 1.82 1.88
1.94 1.86 1.74 2.12 2.01 2.02 2.14 2.09 2.12 2.14 2.12 2.32 2.16 1.61 1.19 1.24 1.37 1.55 1.49 1.33 0.98 0.48 0.65 0.72 0.81 0.89 0.90 0.90 1.09 0.88 0.80 0.87 0.94 1.23 1.49 1.60 1.79 1.86
1.80 1.61 1.51 1.50 1.83 1.54 1.59 1.64 1.76 2.06 1.88 1.59 1.48 1.23 1.11 1.07 1.66 1.76 1.55 1.39 1.00 0.59 0.81 0.83 0.71 0.72 0.67 0.73 0.90 0.79 0.86 0.96 1.08 1.20 1.35 1.46 1.64 1.78
1.38 1.26 1.30 1.24 1.49 1.67 1.63 1.76 1.53 1.29 1.06 1.14 1.23 1.30 1.58 1.61 1.77 1.95 1.56 1.29 0.97 0.78 0.84 1.08 0.70 0.70 0.61 0.62 0.90 0.66 0.71 0.88 1.07 1.23 1.36 1.52 1.65 1.78
1.14 1.19 1.29 1.38 1.62 1.93 2.06 1.95 1.71 1.42 1.48 1.28 1.28 1.48 1.59 1.72 1.78 1.95 2.06 2.03 1.86 1.07 0.84 0.97 0.81 0.76 0.74 0.77 0.91 1.10 1.03 1.03 1.01 1.00 1.06 1.26 1.45 1.57
0.90 1.17 1.43 1.25 1.77 2.18 1.96 1.77 1.69 1.36 1.46 1.52 1.22 1.08 1.11 1.18 1.38 1.51 1.77 2.51 1.85 1.42 0.75 1.30 0.99 1.00 1.42 0.77 0.87 0.97 0.95 1.08 1.04 1.04 1.02 1.14 1.37 1.13
0.80 0.79 0.88 0.95 1.22 1.23 1.38 1.33 1.32 1.37 1.28 1.19 1.07 0.94 0.93 0.99 1.02 0.96 1.12 1.92 2.30 1.63 0.87 2.05 1.92 1.02 1.50 0.99 0.97 0.99 0.85 0.92 0.95 1.09 1.25 1.25 1.50 1.50
0.52 0.40 0.53 0.84 0.64 0.64 0.89 1.06 1.21 1.28 1.20 1.11 1.11 0.98 0.84 0.75 0.65 0.57 0.62 0.89 1.20 1.56 0.92 1.28 2.12 1.15 1.70 1.36 0.92 0.87 0.84 0.95 1.22 1.42 1.53 1.34 1.46 1.67
0.82 0.88 0.82 0.60 0.47 0.48 0.57 0.76 1.14 1.12 1.21 1.29 1.04 0.79 0.61 0.48 0.47 0.50 0.56 0.63 0.70 0.77 0.88 0.93 1.44 1.40 1.77 1.68 1.15 0.85 1.12 1.02 1.11 1.21 1.28 1.44 1.41 1.24
1.49 1.54 1.26 1.08 0.98 0.87 1.05 0.96 0.98 0.96 1.18 1.15 0.92 0.71 0.71 0.64 0.62 0.70 0.93 0.91 1.08 0.79 0.81 0.98 1.20 1.45 1.57 1.16 1.27 1.16 0.97 1.27 1.15 1.15 1.13 1.37 1.53 1.23
1.35 1.41 1.43 1.59 1.71 1.67 1.49 1.18 1.06 1.04 1.27 1.22 1.27 1.16 1.12 1.07 0.96 0.93 1.24 1.43 1.57 1.08 0.94 0.89 0.89 0.88 1.04 1.13 1.29 0.95 0.95 1.04 1.25 1.24 1.11 1.33 1.37 1.29
1.58 1.44 1.27 1.11 1.19 1.22 1.27 1.21 1.07 1.09 1.04 1.27 1.29 1.18 1.24 1.25 1.20 1.11 1.37 1.62 1.55 1.14 1.10 1.01 0.99 1.18 1.12 0.98 1.11 1.18 1.16 1.18 1.33 1.13 1.00 1.13 1.21 1.35
1.66 1.37 1.10 0.94 0.93 1.01 1.09 1.05 0.93 0.85 1.00 1.24 1.42 1.43 1.40 1.26 1.44 1.25 1.30 1.47 1.38 1.07 0.86 0.70 0.96 1.45 1.65 0.88 0.68 1.03 1.61 1.41 1.17 1.09 0.89 0.89 1.08 1.20
1.37 1.05 0.95 0.88 0.96 1.12 1.26 1.37 1.33 1.25 1.26 1.27 1.36 1.34 1.48 1.64 1.52 1.34 1.25 1.41 1.46 1.19 0.83 0.57 0.63 1.14 2.06 1.56 1.34 0.96 1.06 1.28 1.20 1.24 1.08 0.92 1.12 1.15
1.10 1.03 0.97 1.10 1.20 1.41 1.47 1.57 1.60 1.71 1.82 1.87 1.70 1.65 1.54 1.83 1.60 1.25 1.25 1.36 1.38 1.23 1.05 0.52 0.37 0.75 1.23 1.39 1.37 0.70 0.78 0.84 0.86 1.19 1.15 1.16 0.88 0.59
1.08 1.13 1.18 1.31 1.39 1.53 1.72 1.76 1.98 1.97 1.91 1.81 1.73 1.62 1.59 1.76 1.82 1.45 1.21 1.29 1.11 0.96 0.94 0.65 0.70 1.02 1.27 1.48 0.95 0.58 0.52 0.58 0.69 0.67 0.76 1.24 1.50 1.65
1.32 1.43 1.44 1.44 1.52 1.62 1.78 1.81 1.79 1.75 1.74 1.91 1.96 1.82 1.73 1.81 1.45 1.38 1.33 1.32 1.36 1.39 1.08 1.11 1.05 1.07 1.00 1.02 1.02 0.81 0.58 0.58 0.62 0.67 0.79 0.65 0.63 0.79